Vertical_Velocity
2 3 5 1 1 2 -1 -0 2 3 1 9 10 3 -5 -6 -1 9 4 -9 4 0 -0 -0 -4 -2 3 3 2 2 2 0 -2 -3 -0 -2 -1 -1
-3 -1 3 5 6 6 5 10 14 3 -5 1 5 6 -3 -0 -7 0 4 -1 -2 2 1 -2 -5 -2 -2 -2 1 3 -0 -1 -1 -1 -2 -1 -2 -1
2 0 4 1 2 4 1 -1 -7 -0 8 22 2 2 7 6 3 -10 -2 -2 1 1 0 5 -1 -4 -5 -2 -4 -1 3 3 -0 0 -0 -1 0 -3
-0 1 1 2 2 3 1 0 -1 -0 -6 -1 7 8 7 2 -1 -3 -3 -1 -3 -2 1 3 2 1 -4 -6 -1 -1 -4 -1 3 4 5 -6 3 -1
-1 -0 1 -0 3 0 -0 -1 -1 -1 -4 -7 2 1 4 4 -4 -6 0 -1 -4 -3 -7 -6 1 2 0 -8 -3 -3 -0 -2 -1 8 3 2 3 -5
-2 -1 -0 -1 -1 1 -1 -1 1 -1 -2 -3 -1 -3 -8 -2 -4 2 -3 -8 -6 -8 -7 -8 -9 -4 1 2 -8 -5 -3 -6 -5 -6 -1 -2 -2 -1
-0 -1 -1 0 1 -3 -1 4 -0 -0 0 -1 1 0 1 2 -2 -3 -7 -3 -1 -0 -3 -2 -8 -11 -5 -2 -1 -7 -6 -6 -7 -8 -6 -3 -0 1
-1 0 -0 -1 -0 1 -1 0 1 1 3 -0 0 0 3 -2 -0 -3 -2 -4 -3 0 -2 -0 -8 -5 -4 -7 -5 -2 -1 -1 2 1 0 -1 -3 -0
-0 -1 0 2 -3 -2 -0 2 3 0 -2 -2 -4 1 1 0 -5 2 -1 -4 1 3 -7 1 -2 -0 2 -1 1 -5 -0 1 -2 -1 -1 -2 -1 -1
-2 -1 -2 1 -1 -2 1 1 0 1 -1 -4 2 2 -3 3 -2 0 -0 -1 2 4 -5 -4 -2 -0 -1 2 1 -0 -6 0 1 -2 -1 -1 1 2
0 -0 -2 -1 -2 0 1 1 0 0 -2 -0 1 1 2 2 0 -1 5 -4 2 3 -4 -5 3 -4 -5 2 -1 3 1 -3 -2 -1 -1 0 2 3
3 0 -2 -3 -1 1 1 1 2 -1 -1 1 0 1 0 -0 -1 -1 -3 1 -1 2 -2 -7 -3 -4 -1 -0 1 -1 -0 1 -1 0 2 1 1 -2
1 1 -2 -1 1 1 1 2 1 0 0 1 1 1 1 0 -1 -1 -1 -1 0 2 -0 -5 2 -0 0 5 -2 -0 -1 -1 1 -2 -1 -1 1 -1
1 -0 1 2 3 3 3 3 2 1 1 -0 -0 0 -0 0 -1 -1 -0 1 1 2 1 0 2 -3 -1 0 4 -3 -1 -1 -3 1 -3 2 1 2
1 2 2 3 3 4 3 2 1 1 -0 -0 0 -0 0 0 0 -1 -1 -0 0 1 2 1 0 -2 -5 2 1 1 -3 -1 -5 3 -3 -3 1 4
2 4 4 2 3 2 3 2 3 -0 1 1 2 1 1 0 -1 -1 -0 -2 -2 -2 -1 0 1 -0 -1 -0 -2 3 0 -1 -5 4 1 -2 -1 3
3 3 3 2 2 4 3 4 2 1 2 2 2 1 1 -1 -1 -2 -2 -3 -3 -3 -3 -1 0 0 2 1 1 2 1 -0 2 3 3 0 1 0
2 1 2 3 3 3 3 4 2 2 2 2 1 1 0 -0 -1 -3 -3 -3 -5 -4 -3 -3 -2 -0 2 1 2 -1 -0 -2 1 -0 3 1 5 4
1 1 2 3 4 3 2 3 1 1 2 2 1 1 0 -0 -0 -2 -2 -1 -2 -3 -2 -1 -2 -1 0 3 3 1 1 -1 1 1 4 3 2 2
1 2 2 2 3 3 2 3 1 1 1 2 2 1 1 0 0 -0 -1 -2 -2 -2 -2 -2 -3 -1 -0 1 1 1 2 0 0 1 2 2 3 1
2 2 2 2 1 2 2 2 2 1 0 1 2 1 1 0 -1 0 -1 -1 -2 -2 -2 -3 -3 -2 1 1 0 -1 0 0 0 1 3 2 1 2
1 2 1 2 2 2 1 2 2 1 2 1 1 1 2 1 -0 0 -0 0 -0 -1 -1 -1 -2 -2 -1 -0 0 -2 -0 -1 -0 -0 1 1 2 3
0 1 2 3 2 3 2 2 2 2 1 2 1 1 0 2 2 0 0 1 -0 -1 -0 -0 -1 -1 -3 -2 -1 -1 -1 -1 0 1 -0 0 1 1
Height
5485 5480 5477 5473 5472 5472 5472 5474 5476 5478 5483 5488 5490 5492 5493 5496 5498 5502 5509 5513 5518 5524 5529 5536 5542 5549 5558 5565 5571 5578 5585 5592 5601 5610 5619 5627 5636 5644
5463 5460 5458 5457 5456 5455 5455 5457 5458 5458 5462 5466 5468 5472 5474 5475 5480 5481 5486 5492 5498 5503 5509 5515 5520 5527 5535 5543 5550 5557 5565 5572 5580 5589 5597 5607 5616 5625
5449 5447 5445 5443 5441 5440 5440 5440 5441 5441 5445 5450 5451 5454 5455 5456 5459 5462 5467 5472 5478 5483 5489 5496 5501 5506 5513 5520 5528 5536 5545 5553 5560 5568 5577 5585 5596 5605
5436 5433 5431 5428 5427 5426 5425 5426 5425 5426 5426 5431 5434 5435 5438 5439 5441 5444 5448 5451 5457 5462 5468 5474 5481 5487 5492 5499 5506 5514 5523 5532 5540 5547 5554 5567 5572 5584
5422 5419 5416 5413 5413 5411 5411 5410 5410 5410 5411 5414 5419 5420 5422 5422 5424 5426 5429 5433 5437 5441 5445 5451 5458 5465 5472 5477 5485 5493 5501 5510 5520 5525 5534 5543 5552 5560
5407 5404 5401 5398 5397 5396 5395 5396 5395 5395 5395 5398 5403 5405 5406 5408 5408 5410 5411 5413 5418 5421 5424 5429 5434 5441 5451 5457 5461 5467 5475 5484 5492 5501 5510 5518 5528 5538
5390 5387 5385 5383 5382 5381 5381 5381 5380 5380 5381 5383 5388 5391 5390 5391 5391 5392 5394 5396 5401 5403 5405 5409 5412 5418 5425 5431 5437 5442 5450 5459 5467 5476 5486 5496 5506 5516
5371 5368 5366 5365 5365 5366 5366 5367 5367 5367 5368 5370 5373 5375 5374 5373 5374 5375 5377 5380 5383 5383 5385 5392 5393 5399 5404 5408 5413 5420 5428 5436 5444 5452 5461 5470 5481 5491
5353 5350 5347 5346 5346 5348 5350 5352 5354 5354 5355 5357 5359 5359 5358 5357 5358 5359 5360 5362 5365 5366 5367 5373 5373 5379 5383 5387 5394 5399 5407 5415 5422 5430 5437 5445 5455 5465
5336 5332 5329 5329 5329 5330 5333 5337 5340 5342 5343 5343 5344 5345 5344 5343 5342 5343 5345 5346 5349 5352 5352 5355 5355 5359 5361 5367 5373 5379 5386 5394 5401 5408 5416 5425 5434 5443
5322 5318 5314 5314 5315 5316 5319 5323 5327 5330 5330 5332 5333 5333 5333 5332 5331 5330 5332 5332 5336 5338 5339 5340 5343 5345 5347 5351 5355 5360 5364 5371 5379 5387 5396 5405 5413 5422
5311 5306 5303 5302 5304 5306 5308 5313 5317 5319 5322 5323 5324 5324 5323 5322 5320 5319 5319 5321 5322 5325 5325 5324 5328 5331 5334 5338 5341 5345 5350 5355 5359 5365 5374 5384 5393 5401
5301 5297 5294 5293 5295 5298 5301 5306 5310 5313 5316 5317 5318 5318 5317 5316 5314 5313 5312 5312 5313 5314 5312 5310 5315 5316 5319 5323 5326 5331 5336 5341 5345 5348 5351 5360 5371 5382
5293 5290 5289 5289 5291 5294 5298 5301 5305 5309 5311 5313 5314 5314 5312 5311 5309 5308 5306 5305 5305 5305 5303 5301 5305 5307 5308 5310 5314 5316 5321 5327 5331 5335 5337 5340 5349 5362
5290 5288 5288 5289 5291 5293 5296 5299 5302 5305 5308 5310 5310 5309 5308 5307 5306 5304 5301 5298 5295 5292 5291 5290 5292 5294 5296 5299 5302 5304 5308 5313 5318 5323 5324 5325 5330 5341
5291 5290 5290 5290 5291 5292 5294 5297 5300 5304 5305 5306 5307 5306 5305 5305 5303 5301 5298 5294 5289 5285 5281 5279 5279 5281 5284 5287 5290 5294 5296 5300 5305 5310 5313 5314 5317 5324
5293 5292 5291 5291 5291 5292 5295 5297 5299 5302 5303 5304 5304 5304 5303 5302 5301 5299 5295 5290 5286 5281 5278 5274 5271 5271 5274 5277 5280 5282 5285 5289 5294 5299 5303 5305 5307 5312
5295 5293 5292 5292 5293 5294 5296 5297 5299 5301 5302 5302 5303 5302 5302 5301 5299 5297 5293 5288 5284 5279 5274 5271 5269 5266 5267 5268 5270 5272 5275 5279 5283 5288 5294 5297 5299 5303
5296 5295 5294 5294 5294 5296 5297 5298 5299 5300 5300 5301 5301 5301 5300 5299 5297 5295 5292 5288 5283 5278 5273 5269 5265 5262 5259 5260 5263 5265 5268 5272 5275 5280 5286 5289 5292 5296
5297 5296 5296 5296 5296 5296 5297 5298 5299 5299 5299 5299 5299 5299 5298 5297 5295 5293 5291 5287 5283 5278 5273 5268 5263 5259 5256 5254 5257 5260 5263 5266 5269 5273 5278 5282 5286 5291
5298 5297 5296 5296 5296 5296 5297 5297 5297 5298 5298 5297 5297 5297 5296 5295 5293 5292 5289 5286 5282 5278 5273 5268 5263 5257 5253 5251 5253 5256 5259 5262 5265 5268 5272 5276 5280 5284
5297 5297 5296 5296 5295 5295 5295 5295 5295 5296 5296 5295 5295 5294 5293 5292 5291 5289 5287 5284 5281 5278 5274 5269 5264 5258 5254 5251 5252 5255 5258 5260 5263 5265 5268 5271 5274 5278
5295 5295 5295 5294 5294 5294 5294 5293 5293 5293 5293 5293 5292 5291 5291 5290 5288 5287 5285 5283 5280 5277 5274 5270 5266 5262 5257 5254 5253 5254 5257 5259 5260 5262 5265 5267 5269 5272